Time,TemperatureF,DewpointF,PressureIn,WindDirection,WindDirectionDegrees,WindSpeedMPH,WindSpeedGustMPH,Humidity,HourlyPrecipIn,Conditions,Clouds,dailyrainin,SoftwareType,DateUTC
2013-06-26 00:33:00,78.0,-99.9,29.81,ESE,116,2.0,10.0,-999,0.00,,,-99.99,,2013-06-26 04:33:00,
2013-06-26 00:43:00,78.0,-99.9,29.81,ESE,116,2.0,10.0,-999,0.00,,,-99.99,,2013-06-26 04:43:00,
2013-06-26 01:34:00,76.0,-99.9,29.79,SSW,212,-999.0,3.0,-999,0.00,,,-99.99,,2013-06-26 05:34:00,
2013-06-26 01:43:00,76.0,-99.9,29.79,SSW,212,-999.0,3.0,-999,0.00,,,-99.99,,2013-06-26 05:43:00,
2013-06-26 01:52:00,76.0,-99.9,29.79,SSW,212,-999.0,3.0,-999,0.00,,,-99.99,,2013-06-26 05:52:00,
2013-06-26 01:53:00,75.0,-99.9,29.78,ESE,123,-999.0,-999.0,-999,0.00,,,-99.99,,2013-06-26 05:53:00,
2013-06-26 02:34:00,75.0,-99.9,29.78,ESE,123,-999.0,-999.0,-999,0.00,,,-99.99,,2013-06-26 06:34:00,
2013-06-26 02:44:00,75.0,-99.9,29.78,ESE,123,-999.0,-999.0,-999,0.00,,,-99.99,,2013-06-26 06:44:00,
2013-06-26 02:53:00,75.0,-99.9,29.78,SE,129,-999.0,-999.0,-999,0.00,,,-99.99,,2013-06-26 06:53:00,
2013-06-26 03:33:00,75.0,-99.9,29.78,SE,129,-999.0,-999.0,-999,0.00,,,-99.99,,2013-06-26 07:33:00,
2013-06-26 03:43:00,75.0,-99.9,29.78,SE,129,-999.0,-999.0,-999,0.00,,,-99.99,,2013-06-26 07:43:00,
2013-06-26 03:53:00,75.0,-99.9,29.78,West,265,-999.0,10.0,-999,0.00,,,-99.99,,2013-06-26 07:53:00,
2013-06-26 04:34:00,75.0,-99.9,29.78,West,265,-999.0,10.0,-999,0.00,,,-99.99,,2013-06-26 08:34:00,
2013-06-26 04:43:00,75.0,-99.9,29.78,West,265,-999.0,10.0,-999,0.00,,,-99.99,,2013-06-26 08:43:00,
2013-06-26 04:53:00,75.0,-99.9,29.79,SE,133,-999.0,4.0,-999,0.00,,,-99.99,,2013-06-26 08:53:00,
2013-06-26 05:33:00,75.0,-99.9,29.79,SE,133,-999.0,4.0,-999,0.00,,,-99.99,,2013-06-26 09:33:00,
2013-06-26 05:43:00,75.0,-99.9,29.79,SE,133,-999.0,4.0,-999,0.00,,,-99.99,,2013-06-26 09:43:00,
2013-06-26 05:53:00,74.0,-99.9,29.81,NNW,329,-999.0,5.0,-999,0.00,,,-99.99,,2013-06-26 09:53:00,
2013-06-26 06:34:00,74.0,-99.9,29.81,NNW,329,-999.0,5.0,-999,0.00,,,-99.99,,2013-06-26 10:34:00,
2013-06-26 06:43:00,74.0,-99.9,29.81,NNW,329,-999.0,5.0,-999,0.00,,,-99.99,,2013-06-26 10:43:00,
2013-06-26 07:33:00,74.0,-99.9,29.83,SW,222,-999.0,3.0,-999,0.00,,,-99.99,,2013-06-26 11:33:00,
2013-06-26 07:44:00,74.0,-99.9,29.83,SW,222,-999.0,3.0,-999,0.00,,,-99.99,,2013-06-26 11:44:00,
2013-06-26 07:52:00,74.0,-99.9,29.83,SW,222,-999.0,3.0,-999,0.00,,,-99.99,,2013-06-26 11:52:00,
2013-06-26 08:34:00,77.0,-99.9,29.84,WSW,245,-999.0,8.0,-999,0.00,,,-99.99,,2013-06-26 12:34:00,
2013-06-26 08:43:00,77.0,-99.9,29.84,WSW,245,-999.0,8.0,-999,0.00,,,-99.99,,2013-06-26 12:43:00,
2013-06-26 08:52:00,77.0,-99.9,29.84,WSW,245,-999.0,8.0,-999,0.00,,,-99.99,,2013-06-26 12:52:00,
2013-06-26 08:53:00,80.0,-99.9,29.83,SW,236,5.0,6.0,-999,0.00,,,-99.99,,2013-06-26 12:53:00,
2013-06-26 09:43:00,80.0,-99.9,29.83,SW,236,5.0,6.0,-999,0.00,,,-99.99,,2013-06-26 13:43:00,
2013-06-26 09:53:00,81.0,-99.9,29.82,North,351,4.0,8.0,-999,0.00,,,-99.99,,2013-06-26 13:53:00,
2013-06-26 10:34:00,81.0,-99.9,29.82,North,351,4.0,8.0,-999,0.00,,,-99.99,,2013-06-26 14:34:00,
2013-06-26 10:42:00,81.0,-99.9,29.82,North,351,4.0,8.0,-999,0.00,,,-99.99,,2013-06-26 14:42:00,
2013-06-26 10:53:00,82.0,-99.9,29.83,NNW,339,4.0,8.0,-999,0.00,,,-99.99,,2013-06-26 14:53:00,
2013-06-26 11:34:00,82.0,-99.9,29.83,NNW,339,4.0,8.0,-999,0.00,,,-99.99,,2013-06-26 15:34:00,
2013-06-26 11:44:00,82.0,-99.9,29.83,NNW,339,4.0,8.0,-999,0.00,,,-99.99,,2013-06-26 15:44:00,
2013-06-26 12:43:00,80.0,-99.9,29.83,WSW,245,-999.0,7.0,-999,0.00,,,-99.99,,2013-06-26 16:43:00,
2013-06-26 12:52:00,80.0,-99.9,29.83,WSW,245,-999.0,7.0,-999,0.00,,,-99.99,,2013-06-26 16:52:00,
2013-06-26 13:43:00,80.0,-99.9,29.84,SSE,165,2.0,5.0,-999,0.00,,,-99.99,,2013-06-26 17:43:00,
2013-06-26 13:52:00,80.0,-99.9,29.84,SSE,165,2.0,5.0,-999,0.00,,,-99.99,,2013-06-26 17:52:00,
2013-06-26 14:34:00,82.0,-99.9,29.83,NW,309,3.0,6.0,-999,0.00,,,-99.99,,2013-06-26 18:34:00,
2013-06-26 14:43:00,82.0,-99.9,29.83,NW,309,3.0,6.0,-999,0.00,,,-99.99,,2013-06-26 18:43:00,
2013-06-26 14:52:00,82.0,-99.9,29.83,NW,309,3.0,6.0,-999,0.00,,,-99.99,,2013-06-26 18:52:00,
2013-06-26 15:43:00,82.0,-99.9,29.82,SW,222,3.0,7.0,-999,0.00,,,-99.99,,2013-06-26 19:43:00,
2013-06-26 15:52:00,82.0,-99.9,29.82,SW,222,3.0,7.0,-999,0.00,,,-99.99,,2013-06-26 19:52:00,
2013-06-26 15:53:00,84.0,-99.9,29.81,SE,130,4.0,9.0,-999,0.00,,,-99.99,,2013-06-26 19:53:00,
2013-06-26 16:43:00,84.0,-99.9,29.81,SE,130,4.0,9.0,-999,0.00,,,-99.99,,2013-06-26 20:43:00,
2013-06-26 17:33:00,83.0,-99.9,29.80,SSW,199,-999.0,8.0,-999,0.00,,,-99.99,,2013-06-26 21:33:00,
2013-06-26 17:43:00,83.0,-99.9,29.80,SSW,199,-999.0,8.0,-999,0.00,,,-99.99,,2013-06-26 21:43:00,
2013-06-26 17:52:00,83.0,-99.9,29.80,SSW,199,-999.0,8.0,-999,0.00,,,-99.99,,2013-06-26 21:52:00,
2013-06-26 18:53:00,83.0,-99.9,29.79,South,183,-999.0,-999.0,-999,0.00,,,-99.99,,2013-06-26 22:53:00,
2013-06-26 19:34:00,83.0,-99.9,29.79,South,183,-999.0,-999.0,-999,0.00,,,-99.99,,2013-06-26 23:34:00,
2013-06-26 19:43:00,83.0,-99.9,29.79,South,183,-999.0,-999.0,-999,0.00,,,-99.99,,2013-06-26 23:43:00,
2013-06-26 19:53:00,82.0,-99.9,29.79,NW,306,-999.0,-999.0,-999,0.00,,,-99.99,,2013-06-26 23:53:00,
2013-06-26 20:34:00,82.0,-99.9,29.79,NW,306,-999.0,-999.0,-999,0.00,,,-99.99,,2013-06-27 00:34:00,
2013-06-26 20:43:00,82.0,-99.9,29.79,NW,306,-999.0,-999.0,-999,0.00,,,-99.99,,2013-06-27 00:43:00,
2013-06-26 20:53:00,80.0,-99.9,29.80,North,11,-999.0,6.0,-999,0.00,,,-99.99,,2013-06-27 00:53:00,
2013-06-26 21:32:00,80.0,-99.9,29.80,North,11,-999.0,6.0,-999,0.00,,,-99.99,,2013-06-27 01:32:00,
2013-06-26 21:43:00,80.0,-99.9,29.80,North,11,-999.0,6.0,-999,0.00,,,-99.99,,2013-06-27 01:43:00,
2013-06-26 22:32:00,77.0,-99.9,29.80,NNW,346,-999.0,-999.0,-999,0.00,,,-99.99,,2013-06-27 02:32:00,
2013-06-26 22:42:00,77.0,-99.9,29.80,NNW,346,-999.0,-999.0,-999,0.00,,,-99.99,,2013-06-27 02:42:00,
2013-06-26 22:52:00,77.0,-99.9,29.80,NNW,346,-999.0,-999.0,-999,0.00,,,-99.99,,2013-06-27 02:52:00,
2013-06-26 23:33:00,75.0,-99.9,29.81,North,352,-999.0,-999.0,-999,0.00,,,-99.99,,2013-06-27 03:33:00,
2013-06-26 23:42:00,75.0,-99.9,29.81,North,352,-999.0,-999.0,-999,0.00,,,-99.99,,2013-06-27 03:42:00,
2013-06-26 23:52:00,75.0,-99.9,29.81,North,352,-999.0,-999.0,-999,0.00,,,-99.99,,2013-06-27 03:52:00,
2013-06-26 23:53:00,75.0,-99.9,29.82,North,352,-999.0,-999.0,-999,0.00,,,-99.99,,2013-06-27 03:53:00,